Regional Weather Roundup
Issued by NWS

Home | Current Version | Previous Version | Text Only | Print | Product List | Glossary Off
Versions: 1 2 3 4 5 6 7 8 9 10 11 12 13 14 15 16 17 18 19 20 21 22 23 24 25 26 27 28 29 30 31 32 33 34 35 36 37 38 39 40 41 42 43 44 45 46 47 48 49 50

000
ASUS43 KLOT 040121
RWRIL

ILLINOIS REGIONAL WEATHER ROUNDUP
NATIONAL WEATHER SERVICE CHICAGO/ROMEOVILLE IL
800 PM CDT SUN MAY 03 2015

NOTE: "FAIR" INDICATES FEW OR NO CLOUDS BELOW 12,000 FEET WITH NO
SIGNIFICANT WEATHER AND/OR OBSTRUCTIONS TO VISIBILITY.

* THESE STATIONS ARE NOT UNDER NWS QUALITY CONTROL. THEY ALSO MAY NOT
  REPORT WEATHER SUCH AS PRECIPITATION OR FOG.

ILZ001-002-007-009-015-016-024-040200-
NORTHWEST ILLINOIS

CITY           SKY/WX    TMP DP  RH WIND       PRES   REMARKS
MOLINE         MOCLDY    78  55  44 S9        29.83S
STERLING*      PTCLDY    63  59  88 E7        29.86F
SAVANNA*       PTCLDY    66  59  76 SE7       29.84F
$$

ILZ003-004-008-010-011-017-018-040200-
NORTH CENTRAL ILLINOIS

CITY           SKY/WX    TMP DP  RH WIND       PRES   REMARKS
ROCKFORD       PTCLDY    63  57  81 SE10      29.89F
FREEPORT*      CLEAR     63  57  82 SE10      29.87F
ROCHELLE*      CLEAR     62  58  87 SE9       29.89F
DE KALB*       MOCLDY    60  55  83 E13       29.91F
PERU*          MOCLDY    68  55  64 E9        29.89S
$$

ILZ005-006-012>014-019>023-040200-
NORTHEAST ILLINOIS

CITY           SKY/WX    TMP DP  RH WIND       PRES   REMARKS
CHICAGO-OHARE  TSTM      62  59  90 S7        29.93F
CHICAGO-MIDWAY LGT RAIN  65  61  87 N10       29.95S
AURORA         CLOUDY    64  56  75 E8        29.91F
LANSING*       LGT RAIN  71  44  37 S7        29.94S
JOLIET*        CLOUDY    67  59  76 N5        29.93S
WAUKEGAN       CLOUDY    61  59  93 SE6       29.92F
DUPAGE AIRPORT CLOUDY    63  57  81 SE10      29.89F
KANKAKEE*      LGT RAIN  72  48  42 S10       29.94S
WHEELING       CLOUDY    62  60  93 SE3       29.94F
MORRIS*        CLOUDY    70  54  56 E3        29.91S
ROMEOVILLE*    CLOUDY    63  58  84 NW3       29.93S
NORTHERLY ISL    N/A     64  57  78 W1          N/A
$$

LMZ740>746-040200-
SOUTHERN LAKE MICHIGAN

STATION/POSITION SKY/WX   TEMP    WIND        PRES    VSBY  WAVE
                          AIR SEA DIR/SP/G                  HT/PER
                          (F)     (DEG/KT/KT) (MB)    (MI)  (FT/S)
HARRISON CRIB              62     270/  6/  8   N/A
BURNHAM HARBOR             63      CALM  / 15   N/A
CALUMET HARBOR             76     210/  5/  7   N/A
BURNS HARBOR               76     190/ 12/ 16 1014.2R
MICHIGAN CITY              75     170/ 12/ 15   N/A
MICHIGAN CITY 6N           62 51  220/  6/  8   N/A           1
ST. JOSEPH                 62 50  220/ 10/ 12   N/A           1/ 3
$$

ILZ025>027-034>036-040-047-049-050-058-095>099-040200-
WEST-CENTRAL ILLINOIS

CITY           SKY/WX    TMP DP  RH WIND       PRES   REMARKS
QUINCY         MOCLDY    75  53  46 SE7       29.89R
GALESBURG*     PTCLDY    76  54  46 S12       29.87S
MACOMB*        MOCLDY    77  53  42 S12       29.89S
JACKSONVILLE*  PTCLDY    79  49  34 S7        29.92R
PITTSFIELD*    MOCLDY    77  52  41 S14       29.91F
$$

ILZ028>032-037-038-041>044-048-051>054-059>061-040200-
CENTRAL ILLINOIS

CITY           SKY/WX    TMP DP  RH WIND       PRES   REMARKS
PONTIAC        CLOUDY    79  49  34 S13       29.93S
BLOOMINGTON    PTCLDY    74  50  42 S15       29.95R
DECATUR        CLEAR     75  45  34 S13       29.97R
PEORIA         CLEAR     77  51  40 S9        29.89S
LACON*         PTCLDY    76  51  42 S7        29.88S
LINCOLN*       CLEAR     77  47  34 S12       29.91R
SPRINGFIELD    CLEAR     77  49  37 S14G23    29.93R
TAYLORVILLE    CLEAR     72  46  40 S10       29.97R
$$

ILZ033-039-045-046-055>057-062-063-040200-
EAST-CENTRAL ILLINOIS

CITY           SKY/WX    TMP DP  RH WIND       PRES   REMARKS
CHAMPAIGN      PTCLDY    73  45  36 S13       29.98R
DANVILLE*      MOCLDY    72  45  37 S9        29.97R
RANTOUL*       MOCLDY    76  46  35 S10       29.97R
MATTOON        CLEAR     73  45  36 S8        29.99R
PARIS*         CLEAR     70  46  41 S9        30.01R
$$

ILZ079-100>102-040200-
SOUTHWEST ILLINOIS

CITY           SKY/WX    TMP DP  RH WIND       PRES   REMARKS
ALTON          MOCLDY    75  37  25 S14       29.96R
BELLEVILLE     MOCLDY    72  50  45 S6        29.96R
CAHOKIA*       CLOUDY    77  49  37 S8        29.95R
SPARTA*        MOCLDY    74  48  40 S8        29.99S
$$

ILZ064>066-069>071-074>076-080>082-084>086-088>090-092>094-040200-
SOUTH-CENTRAL ILLINOIS

CITY           SKY/WX    TMP DP  RH WIND       PRES   REMARKS
CARBONDALE     PTCLDY    71  47  42 S9        30.00S
CAIRO*         CLEAR     73  46  37 S6        30.03R
EFFINGHAM*     CLEAR     73  40  30 SE5       30.01R
MARION         PTCLDY    73  46  38 S7        30.02S
MT. VERNON     PTCLDY   N/A N/A N/A S8        30.01R
CENTRALIA*     MOCLDY    68  45  42 S6        30.00R
SALEM*         MOCLDY    74  40  29 S5        30.00R
METROPOLIS*    CLEAR     73  47  40 S3        30.03S
$$

ILZ067-068-072-073-078-083-087-091-040200-
SOUTHEAST ILLINOIS

CITY           SKY/WX    TMP DP  RH WIND       PRES   REMARKS
LAWRENCEVILLE  PTCLDY    71  48  43 S9        30.02S
FLORA*         PTCLDY    70  46  42 S7        30.01R
FAIRFIELD*     PTCLDY    71  46  41 S7        30.01R
HARRISBURG*    PTCLDY    72  45  38 S7        30.04S
ROBINSON*      CLEAR     71  47  42 S7        30.02S
CARMI*         PTCLDY    69  44  40 S8        30.02S
$$

ABBREVIATIONS USED IN REMARKS
   TC - TEMPERATURE IN CELSIUS
  WCI - WIND CHILL INDEX
   HX - HEAT INDEX
  VSB - VISIBILITY
$$




USA.gov is the U.S. government's official web portal to all federal, state and local government web resources and services.